Weather in Bolshaya Kandala

Russia / Ulyanovsk Oblast     54°33′00″N   49°20′55″E
temp.,
°C
wind,
m/s
gust,
m/s
humid.,
%
clouds,
%
prec.,
mm/h
press.,
hPa
HPBL,
m
23 april, fri
fri2301:00+6sse5117945 0.0 1025300
04:00+4sse4109138 0.0 1026235
07:00+5sse478945 0.0 1026214
10:00+10sse34675 0.0 1026515
13:00+14se345530 0.0 10241175
16:00+15ese4451100 0.1 10221408
19:00+12ese3561100 0.0 1021195
22:00+9e3575100 0.0 102093
24 april, sat
sat2401:00+8e3578100 0.0 101897
04:00+7se3591100 0.0 1016149
07:00+7ese2490100 0.0 1015203
10:00+7ese3590100 0.6 1014418
13:00+7ese2390100 1.1 1013266
16:00+8ese2382100 1.1 1011360
19:00+9ese4683100 0.0 1010356
22:00+8se61286100 0.1 1008411
25 april, sun
sun2501:00+8sse5138895 0.3 1005415
04:00+5wsw51194100 5.4 1006771
07:00+5sw5107992 0.8 10071001
10:00+7wsw8106173 1.1 10071543
13:00+7wsw9115979 0.8 10091758
16:00+6w7108052 1.3 1012924
19:00+7sw711655 0.1 1013688
22:00+5sw61272100 0.5 1015632
26 april, mon
mon2601:00+3sw512750 0.0 1016481
04:00+2sw511780 0.0 1017291
07:00+4ssw412715 0.0 1017375
10:00+9ssw7114413 0.0 10171526
13:00+11ssw793710 0.0 10161774
16:00+12ssw573641 0.0 10151967
19:00+9sse485288 0.0 1014289
22:00+7sse116451 0.0 101421
27 april, tue
tue2701:00+5sse346256 0.0 101267
04:00+4sse356641 0.0 101179
07:00+5sse496590 0.0 1009234
10:00+10ssw695093 0.0 10081322
13:00+6w687121 0.1 1009801
16:00+10w584146 0.1 10082241
19:00+8w5758100 0.0 1009971
22:00+6sw4970100 0.6 1009484